Weather History for Mackinac Island, MI

Change the Weather History Date:

Tuesday, January 8, 2013

  Actual Average Record
Temperature  
Mean Temperature 34 °F -  
Max Temperature 37 °F 24 °F 45 °F (1989)
Min Temperature 32 °F 14 °F -9 °F (1981)
Degree Days  
Heating Degree Days 30    
Moisture  
Dew Point 29 °F    
Average Humidity 81    
Maximum Humidity 87    
Minimum Humidity 73    
Precipitation  
Precipitation 0.00 in - - ()
Sea Level Pressure  
Sea Level Pressure 30.02 in    
Wind  
Wind Speed 10 mph (SSW)    
Max Wind Speed 18 mph    
Max Gust Speed 30 mph    
Visibility 10 miles    
Events      
Averages and records for this station are not official NWS values.
T = Trace of Precipitation, MM = Missing Value Source: NWS Daily Summary

Daily Weather History Graph

Daily Weather History Graph

Search for Another Location

Airport:

Trip Planner

Search our weather history database for the weather conditions in past years. The results will help you decide how hot, cold, wet, or windy it might be!

Date:

Astronomy

Jan. 08, 2013 Rise Set
Actual Time 8:19 AM EST 5:12 PM EST
Civil Twilight 7:45 AM EST 5:46 PM EST
Nautical Twilight 7:07 AM EST 6:23 PM EST
Astronomical Twilight 6:31 AM EST 6:59 PM EST
Moon 4:50 AM EST (1/8) 2:14 PM EST (1/8)
Length of Visible Light 10h 00m
Length of Day
8h 53m
Waning Crescent, 14% of the Moon is Illuminated
Jan 8
Waning Crescent
Jan 11
New
Jan 18
First Quarter
Jan 26
Full
Feb 3
Last Quarter

Hourly Weather History & Observations

Time (EST) Temp. Windchill Dew Point Humidity Pressure Visibility Wind Dir Wind Speed Gust Speed Precip Events Conditions
12:15 AM 35.1 °F 24.5 °F 29.3 °F 80% 29.88 in 10.0 mi WSW 18.4 mph 29.9 mph N/A   Scattered Clouds
12:35 AM 34.7 °F 24.3 °F 29.5 °F 81% 29.89 in 10.0 mi WSW 17.3 mph 26.5 mph N/A   Clear
12:55 AM 34.7 °F 25.5 °F 30.0 °F 83% 29.90 in 10.0 mi WSW 13.8 mph 26.5 mph N/A   Clear
1:35 AM 34.3 °F 25.0 °F 30.0 °F 84% 29.92 in 10.0 mi SW 13.8 mph 23.0 mph N/A   Clear
1:55 AM 34.3 °F 25.9 °F 30.2 °F 85% 29.92 in 10.0 mi WSW 11.5 mph 21.9 mph N/A   Clear
2:15 AM 33.8 °F 25.8 °F 30.0 °F 86% 29.93 in 10.0 mi WSW 10.4 mph 23.0 mph N/A   Clear
2:35 AM 34.2 °F 24.8 °F 30.0 °F 85% 29.94 in 10.0 mi WSW 13.8 mph 23.0 mph N/A   Clear
2:55 AM 34.7 °F 25.9 °F 29.3 °F 81% 29.94 in 10.0 mi WSW 12.7 mph 20.7 mph N/A   Clear
3:15 AM 34.7 °F 25.9 °F 29.3 °F 81% 29.95 in 10.0 mi WSW 12.7 mph 17.3 mph N/A   Clear
3:35 AM 34.3 °F 27.0 °F 29.3 °F 82% 29.95 in 10.0 mi WSW 9.2 mph 18.4 mph N/A   Clear
3:55 AM 34.0 °F 25.5 °F 29.7 °F 84% 29.95 in 10.0 mi WSW 11.5 mph 19.6 mph N/A   Clear
4:15 AM 34.2 °F 26.8 °F 29.3 °F 82% 29.96 in 10.0 mi WSW 9.2 mph 18.4 mph N/A   Clear
4:35 AM 34.2 °F 26.2 °F 29.1 °F 82% 29.96 in 10.0 mi WSW 10.4 mph 18.4 mph N/A   Clear
4:55 AM 33.4 °F 25.4 °F 29.1 °F 84% 29.97 in 10.0 mi WSW 10.4 mph - N/A   Clear
5:15 AM 33.8 °F 27.0 °F 28.9 °F 82% 29.97 in 10.0 mi WSW 8.1 mph 17.3 mph N/A   Clear
5:35 AM 33.4 °F 25.9 °F 28.9 °F 84% 29.98 in 10.0 mi WSW 9.2 mph 17.3 mph N/A   Clear
5:55 AM 33.4 °F 26.6 °F 29.1 °F 84% 29.98 in 10.0 mi WSW 8.1 mph 16.1 mph N/A   Clear
6:15 AM 32.9 °F 25.3 °F 29.1 °F 86% 29.99 in 10.0 mi WSW 9.2 mph - N/A   Clear
6:35 AM 32.9 °F 26.7 °F 29.3 °F 87% 30.00 in 10.0 mi WSW 6.9 mph - N/A   Clear
6:55 AM 32.9 °F 27.5 °F 29.3 °F 87% 30.01 in 10.0 mi West 5.8 mph - N/A   Clear
7:15 AM 32.9 °F 27.5 °F 29.1 °F 86% 30.02 in 10.0 mi WSW 5.8 mph - N/A   Clear
7:35 AM 32.9 °F 28.5 °F 28.8 °F 85% 30.03 in 10.0 mi WSW 4.6 mph - N/A   Clear
7:55 AM 32.7 °F 29.6 °F 28.4 °F 84% 30.05 in 10.0 mi West 3.5 mph - N/A   Clear
8:15 AM 32.0 °F 26.4 °F 27.7 °F 84% 30.05 in 10.0 mi West 5.8 mph - N/A   Clear
8:35 AM 32.4 °F 26.0 °F 27.9 °F 83% 30.06 in 10.0 mi West 6.9 mph - N/A   Clear
8:55 AM 32.0 °F 26.4 °F 27.5 °F 83% 30.07 in 10.0 mi West 5.8 mph - N/A   Clear
9:15 AM 32.0 °F 28.7 °F 27.5 °F 83% 30.07 in 10.0 mi West 3.5 mph - N/A   Clear
9:35 AM 32.2 °F 24.4 °F 27.5 °F 83% 30.08 in 10.0 mi West 9.2 mph - N/A   Scattered Clouds
9:55 AM 32.9 °F 26.7 °F 27.3 °F 80% 30.08 in 10.0 mi West 6.9 mph - N/A   Scattered Clouds
10:15 AM 34.2 °F 30.0 °F 27.3 °F 76% 30.10 in 10.0 mi West 4.6 mph - N/A   Scattered Clouds
10:35 AM 34.9 °F 30.8 °F 27.0 °F 73% 30.09 in 10.0 mi West 4.6 mph - N/A   Scattered Clouds
10:55 AM 34.0 °F 29.8 °F 27.1 °F 76% 30.10 in 10.0 mi South 4.6 mph - N/A   Mostly Cloudy
11:15 AM 34.0 °F - 29.1 °F 82% 30.10 in 10.0 mi Calm Calm - N/A   Overcast
11:34 AM 34.9 °F 32.0 °F 28.4 °F 77% 30.10 in 10.0 mi SW 3.5 mph - N/A   Overcast
11:55 AM 35.1 °F - 27.7 °F 74% 30.09 in 10.0 mi Calm Calm - N/A   Overcast
12:15 PM 35.4 °F 31.5 °F 27.9 °F 74% 30.09 in 10.0 mi WSW 4.6 mph - N/A   Mostly Cloudy
12:55 PM 36.5 °F - 29.3 °F 75% 30.09 in 10.0 mi Calm Calm - N/A   Clear
1:55 PM 36.7 °F 34.1 °F 29.7 °F 76% 30.09 in 10.0 mi West 3.5 mph - N/A   Clear
2:15 PM 36.7 °F 34.1 °F 29.8 °F 76% 30.08 in 10.0 mi WSW 3.5 mph - N/A   Clear
2:55 PM 36.9 °F 34.3 °F 30.4 °F 77% 30.08 in 10.0 mi West 3.5 mph - N/A   Clear
3:15 PM 37.0 °F - 30.4 °F 77% 30.08 in 10.0 mi Calm Calm - N/A   Clear
3:35 PM 36.5 °F - 30.4 °F 78% 30.08 in 10.0 mi Calm Calm - N/A   Clear
3:55 PM 37.0 °F - 30.2 °F 76% 30.08 in 10.0 mi Calm Calm - N/A   Clear
4:15 PM 36.3 °F 33.7 °F 29.8 °F 77% 30.09 in 10.0 mi SE 3.5 mph - N/A   Clear
4:35 PM 35.6 °F 32.8 °F 30.2 °F 81% 30.08 in 10.0 mi East 3.5 mph - N/A   Clear
4:55 PM 34.7 °F 31.8 °F 30.2 °F 84% 30.08 in 10.0 mi East 3.5 mph - N/A   Clear
5:15 PM 34.9 °F 29.9 °F 30.7 °F 85% 30.08 in 7.0 mi SE 5.8 mph - N/A   Clear
5:35 PM 34.7 °F 28.8 °F 29.7 °F 82% 30.07 in 10.0 mi ESE 6.9 mph - N/A   Clear
5:55 PM 34.5 °F 27.9 °F 30.7 °F 86% 30.07 in 10.0 mi ESE 8.1 mph - N/A   Clear
6:15 PM 34.3 °F 27.7 °F 30.6 °F 86% 30.05 in 10.0 mi ESE 8.1 mph - N/A   Clear
6:35 PM 34.7 °F 28.1 °F 30.2 °F 84% 30.05 in 10.0 mi ESE 8.1 mph - N/A   Clear
6:55 PM 34.7 °F 28.8 °F 29.8 °F 82% 30.04 in 10.0 mi SE 6.9 mph - N/A   Clear
7:15 PM 35.2 °F 28.8 °F 28.9 °F 78% 30.04 in 10.0 mi SSE 8.1 mph - N/A   Clear
7:35 PM 35.2 °F 28.8 °F 28.2 °F 76% 30.03 in 10.0 mi SSE 8.1 mph - N/A   Clear
7:55 PM 34.5 °F 26.7 °F 28.0 °F 77% 30.02 in 10.0 mi SSE 10.4 mph 17.3 mph N/A   Clear
8:15 PM 33.8 °F 25.3 °F 28.2 °F 80% 30.02 in 10.0 mi SSE 11.5 mph 16.1 mph N/A   Clear
8:35 PM 33.6 °F 25.0 °F 28.0 °F 80% 30.00 in 10.0 mi SSE 11.5 mph - N/A   Clear
8:55 PM 33.8 °F 26.4 °F 28.4 °F 81% 30.00 in 10.0 mi SSE 9.2 mph - N/A   Clear
9:15 PM 33.3 °F 26.4 °F 28.4 °F 82% 30.00 in 7.0 mi SSE 8.1 mph - N/A   Clear
9:35 PM 33.1 °F 26.1 °F 28.4 °F 83% 29.97 in 7.0 mi SE 8.1 mph 16.1 mph N/A   Clear
9:55 PM 33.1 °F 24.9 °F 28.4 °F 83% 29.97 in 7.0 mi SSE 10.4 mph 19.6 mph N/A   Clear
10:14 PM 32.9 °F 23.2 °F 28.2 °F 83% 29.96 in 7.0 mi SSE 13.8 mph 23.0 mph N/A   Clear
10:35 PM 32.7 °F 23.4 °F 28.0 °F 83% 29.96 in 7.0 mi SSE 12.7 mph 23.0 mph N/A   Clear
10:55 PM 32.5 °F 24.2 °F 27.9 °F 83% 29.95 in 7.0 mi SSE 10.4 mph 19.6 mph N/A   Clear
11:14 PM 32.5 °F 22.7 °F 27.5 °F 82% 29.94 in 7.0 mi SSE 13.8 mph 21.9 mph N/A   Clear
11:35 PM 32.7 °F 24.5 °F 27.3 °F 81% 29.93 in 7.0 mi SSE 10.4 mph 20.7 mph N/A   Clear
11:55 PM 32.5 °F 21.9 °F 27.1 °F 80% 29.92 in 7.0 mi SSE 16.1 mph 24.2 mph N/A   Clear